Location: Carrer del Canonge
(41.4901°N, 2.2931°E)
Time: 14:08:56
(UTC+00:00)

MOS 1 Rocket - Pass Details

Date: 18 September 2020
Orbit: 614 x 831 km, 97.4° (Epoch: 29 October)

Event Time Altitude Azimuth Distance (km) Brightness Sun altitude
Rises 18:58:54 0° 12° (NNE) 3,008 6.6 -12.8°
Reaches altitude 10° 19:01:10 10° 13° (NNE) 2,063 5.8 -13.2°
Maximum altitude 19:05:39 84° 101° (E) 640 3.0 -14.0°
Drops below altitude 10° 19:09:56 10° 191° (S) 1,976 5.6 -14.8°
Sets 19:12:05 0° 192° (SSW) 2,869 6.4 -15.2°
